[[{"header":{"parameterUnit":"m.s-1","parameterCategory":1,"la1":30.2991,"la2":30.254,"lo1":-89.0895,"lo2":-89.0444,"dy":0.0017,"dx":0.0017,"nx":28,"ny":28,"refTime":"2026-01-03T09:00:00:Z","depth":0,"parameterNumber":2,"parameterNumberName":"U-component_of_WINDS"},"data":[0,0,0,0,0,0,0,0,0,0,0,0,0,0,0,0,0,0,0,0,0,0,0,0,0,0,0,0,0,0,0,0,0,0,0,0,0,0,0,0,0,0,0,0,0,0,0,0,0,0,0,0,0,0,0,0,0,0,-2.3788,-2.3789,0,-2.3861,-2.3862,-2.3862,-2.3844,-2.3843,-2.3842,-2.384,-2.3917,-2.392,-2.3923,0,0,0,0,0,0,0,0,0,0,0,0,0,-2.3635,-2.3638,-2.3788,-2.3789,-2.379,-2.3861,-2.3862,-2.3863,-2.3845,-2.3843,-2.3841,-2.384,-2.3916,-2.392,-2.3924,0,0,0,0,0,0,0,0,0,0,0,0,0,-2.3704,-2.3639,-2.3788,-2.3789,-2.379,-2.386,-2.3862,-2.3863,-2.3845,-2.3843,-2.3841,-2.3839,-2.3914,-2.3919,-2.3924,-2.3998,0,0,-2.394,-2.3942,0,0,0,0,0,0,0,0,-2.37,-2.371,-2.3788,-2.3789,-2.379,-2.3841,-2.3836,-2.3908,-2.3846,-2.3824,-2.384,-2.3838,-2.3893,-2.39,-2.3919,-2.4002,-2.4005,-2.394,-2.3943,-2.3945,-2.3947,0,0,0,0,0,0,0,-2.3696,-2.3707,-2.3817,-2.3789,-2.3791,-2.3787,-2.3794,-2.385,-2.387,-2.3826,-2.3825,-2.3834,-2.3894,-2.3914,-2.392,-2.4006,-2.394,-2.3944,-2.3947,-2.3949,-2.4155,-2.4157,0,0,0,0,0,0,-2.369,-2.3703,-2.3814,-2.3819,-2.3739,-2.3791,-2.38,-2.3827,-2.3869,-2.3874,-2.3835,-2.3832,-2.3906,-2.3914,-2.3923,-2.4013,-2.3945,-2.395,-2.3953,-2.4152,-2.4155,-2.4158,0,0,0,0,0,0,-2.3686,-2.37,-2.3812,-2.3761,-2.3775,-2.3796,-2.3827,-2.383,-2.385,-2.3876,-2.388,-2.3852,-2.3905,-2.3916,-2.398,-2.4015,-2.3952,-2.3957,-2.4149,-2.4153,-2.4156,-2.4193,0,0,0,0,0,0,-2.3682,-2.3699,-2.3727,-2.3761,-2.3777,-2.3867,-2.3829,-2.3833,-2.3858,-2.3855,-2.3893,-2.3897,-2.3904,-2.3972,-2.3985,-2.4021,-2.3961,-2.4146,-2.4151,-2.4155,-2.4189,-2.4198,-2.4205,0,0,0,0,0,-2.3677,-2.3734,-2.3728,-2.3742,-2.3812,-2.3869,-2.3878,-2.3884,-2.3861,-2.389,-2.3907,-2.3896,-2.4009,-2.3979,-2.3993,-2.4031,-2.4144,-2.415,-2.4155,-2.4186,-2.4196,-2.4205,0,0,0,0,0,0,-2.3704,-2.3739,-2.3732,-2.3803,-2.3833,-2.3865,-2.3902,-2.3895,-2.3933,-2.3928,-2.3935,-2.3943,-2.4009,-2.4026,-2.3992,-2.4106,-2.4073,-2.4082,-2.4092,-2.4102,-2.411,-2.4105,-2.3965,0,0,0,0,0,-2.3717,-2.376,-2.3788,-2.3848,-2.3863,-2.388,-2.3905,-2.3907,-2.3938,-2.3951,-2.3973,-2.4005,-2.4048,-2.4076,-2.4116,-2.4191,-2.42,-2.4225,-2.4233,-2.4239,-2.4247,-2.4289,-2.4301,-2.4176,-2.4176,-2.4175,0,0,-2.3747,-2.3771,-2.3798,-2.3854,-2.3877,-2.3922,-2.3891,-2.3939,-2.3972,-2.3959,-2.402,-2.4038,-2.4074,-2.4144,-2.4175,-2.416,-2.4283,-2.4246,-2.4251,-2.4255,-2.4296,-2.4308,-2.4318,-2.4179,-2.4179,-2.4178,0,0,-2.3824,-2.3846,-2.3898,-2.3923,-2.3958,-2.3969,-2.3982,-2.4016,-2.4027,-2.4089,-2.408,-2.412,-2.4193,-2.4219,-2.4242,-2.4329,-2.4321,-2.4342,-2.4385,-2.4426,-2.4436,-2.4445,-2.4477,-2.4488,-2.435,-2.435,-2.435,0,-2.3856,-2.3922,-2.3926,-2.3975,-2.4001,-2.399,-2.4044,-2.4067,-2.4115,-2.4133,-2.4115,-2.4207,-2.423,-2.4307,-2.4328,-2.4347,-2.4362,-2.4339,-2.4434,-2.4443,-2.4451,-2.4482,-2.4494,-2.4352,-2.4352,-2.4352,-2.4352,0,-2.3961,-2.4006,-2.4044,-2.4091,-2.412,-2.4171,-2.4184,-2.4213,-2.4213,-2.4226,-2.429,-2.4317,-2.4364,-2.4382,-2.4382,-2.4459,-2.4448,-2.4432,-2.44,-2.4466,-2.4495,-2.4506,-2.4356,-2.4355,-2.4354,-2.4354,0,0,-2.4057,-2.4104,-2.4119,-2.414,-2.4179,-2.4215,-2.4266,-2.4311,-2.4336,-2.437,-2.4413,-2.4476,-2.4461,-2.4487,-2.449,-2.4526,-2.4595,-2.4505,-2.4506,-2.4522,-2.4682,-2.4695,-2.4709,-2.4589,-2.4591,-2.4593,-2.468,0,-2.4138,-2.4227,-2.4233,-2.4314,-2.4357,-2.4348,-2.4392,-2.4421,-2.4435,-2.4474,-2.4489,-2.4534,-2.451,-2.4526,-2.4561,-2.4579,-2.4627,-2.4572,-2.4631,-2.4633,-2.4623,-2.4724,-2.4737,-2.4818,-2.4691,-2.4693,-2.4694,0,-2.4244,-2.4281,-2.4366,-2.44,-2.4418,-2.4458,-2.45,-2.4537,-2.4571,-2.4578,-2.4607,-2.4605,-2.4659,-2.4624,-2.4698,-2.4661,-2.4685,-2.4697,-2.4701,-2.4707,-2.4668,-2.4734,-2.4844,-2.4856,-2.4712,-2.4711,-2.4709,0,-2.4308,-2.4378,-2.4438,-2.4457,-2.4497,-2.4525,-2.4544,-2.4575,-2.4602,-2.4639,-2.4657,-2.4699,-2.4723,-2.4757,-2.4767,-2.474,-2.4841,-2.4807,-2.485,-2.485,-2.4872,-2.4871,-2.4988,-2.4886,-2.4886,-2.4886,-2.4885,0,-2.4398,-2.4451,-2.4467,-2.4505,-2.4564,-2.457,-2.4629,-2.4645,-2.4673,-2.4714,-2.4709,-2.4747,-2.4758,-2.4799,-2.4807,-2.4867,-2.4878,-2.4886,-2.4888,-2.4887,-2.4887,-2.4904,-2.4899,-2.4889,-2.4888,-2.4887,-2.4887,0,-2.4479,-2.4492,-2.4558,-2.459,-2.46,-2.4642,-2.4671,-2.4707,-2.472,-2.4772,-2.4784,-2.4804,-2.4852,-2.4865,-2.4923,-2.4928,-2.5,-2.4996,-2.4989,-2.4989,-2.5032,-2.5028,-2.5166,-2.5184,-2.5068,-2.507,-2.507,0,-2.4537,-2.4578,-2.4615,-2.4641,-2.4661,-2.4704,-2.4732,-2.4739,-2.4768,-2.4809,-2.4841,-2.4888,-2.4926,-2.5004,-2.5024,-2.5068,-2.5066,-2.5111,-2.5072,-2.5071,-2.5068,-2.5066,-2.507,-2.5118,-2.512,-2.5121,-2.5121,0,-2.4638,-2.4643,-2.4682,-2.4725,-2.4757,-2.4791,-2.4823,-2.4846,-2.4858,-2.4891,-2.494,-2.4969,-2.5028,-2.5075,-2.512,-2.5139,-2.5133,-2.5133,-2.5146,-2.5146,-2.5141,-2.5146,-2.501,-2.513,-2.5129,-2.5129,-2.5128,-2.5128,-2.471,-2.4746,-2.4778,-2.4823,-2.4848,-2.4878,-2.4914,-2.4931,-2.4972,-2.502,-2.5022,-2.5075,-2.5108,-2.5167,-2.5189,-2.5231,-2.5218,-2.5236,-2.5241,-2.5245,-2.5249,-2.5133,-2.5239,-2.5239,-2.5239,-2.5239,-2.5239,0,-2.4813,-2.4832,-2.4873,-2.4919,-2.4954,-2.4944,-2.4979,-2.501,-2.5057,-2.5087,-2.5125,-2.5181,-2.5227,-2.5251,-2.5297,-2.5326,-2.5325,-2.5338,-2.5337,-2.5341,-2.5258,-2.5243,-2.5339,-2.5339,-2.5339,-2.5339,-2.5339,-2.5339,-2.487,-2.4931,-2.4939,-2.5012,-2.5032,-2.5084,-2.5105,-2.5133,-2.5158,-2.5221,-2.5259,-2.5274,-2.5302,-2.535,-2.5392,-2.5398,-2.5415,-2.5431,-2.5435,-2.5357,-2.5347,-2.5337,-2.5324,-2.5434,-2.5434,-2.5515,-2.5516,-2.5517]},{"header":{"parameterUnit":"m.s-1","parameterCategory":1,"la1":30.2991,"la2":30.254,"lo1":-89.0895,"lo2":-89.0444,"dy":0.0017,"dx":0.0017,"nx":28,"ny":28,"refTime":"2026-01-03T09:00:00:Z","depth":0,"parameterNumber":3,"parameterNumberName":"V-component_of_WINDS"},"data":[0,0,0,0,0,0,0,0,0,0,0,0,0,0,0,0,0,0,0,0,0,0,0,0,0,0,0,0,0,0,0,0,0,0,0,0,0,0,0,0,0,0,0,0,0,0,0,0,0,0,0,0,0,0,0,0,0,0,-2.9752,-2.9752,0,-2.9752,-2.9752,-2.9752,-2.9691,-2.969,-2.9688,-2.9686,-2.9686,-2.9687,-2.9689,0,0,0,0,0,0,0,0,0,0,0,0,0,-2.9699,-2.9701,-2.9752,-2.9752,-2.9752,-2.9752,-2.9752,-2.9752,-2.9691,-2.969,-2.9688,-2.9686,-2.9686,-2.9687,-2.9689,0,0,0,0,0,0,0,0,0,0,0,0,0,-2.9713,-2.9701,-2.9752,-2.9722,-2.9719,-2.9752,-2.9752,-2.9752,-2.9692,-2.9689,-2.9687,-2.9685,-2.9685,-2.9687,-2.9689,-2.9751,0,0,-2.9696,-2.9697,0,0,0,0,0,0,0,0,-2.9712,-2.9715,-2.9727,-2.9724,-2.9721,-2.9719,-2.9733,-2.9752,-2.9692,-2.9702,-2.9686,-2.9684,-2.9699,-2.97,-2.9705,-2.9751,-2.9751,-2.9696,-2.9698,-2.9699,-2.9699,0,0,0,0,0,0,0,-2.9712,-2.9715,-2.9752,-2.9727,-2.9724,-2.9708,-2.9707,-2.9736,-2.9714,-2.9701,-2.9697,-2.9698,-2.9697,-2.9703,-2.9705,-2.9751,-2.9696,-2.9698,-2.97,-2.97,-2.9848,-2.985,0,0,0,0,0,0,-2.9715,-2.9714,-2.9752,-2.9752,-2.9711,-2.9711,-2.971,-2.9722,-2.9714,-2.971,-2.97,-2.9695,-2.9701,-2.9702,-2.9704,-2.9777,-2.9699,-2.9701,-2.9702,-2.9845,-2.9848,-2.9851,0,0,0,0,0,0,-2.9714,-2.9719,-2.9752,-2.9732,-2.9735,-2.9715,-2.9728,-2.9724,-2.973,-2.9712,-2.9708,-2.971,-2.9699,-2.9701,-2.974,-2.9776,-2.9702,-2.9704,-2.9842,-2.9846,-2.985,-2.9922,0,0,0,0,0,0,-2.9713,-2.9719,-2.9742,-2.9733,-2.9737,-2.9788,-2.9731,-2.9725,-2.9734,-2.9727,-2.9721,-2.9718,-2.9697,-2.9737,-2.9742,-2.9778,-2.9705,-2.9839,-2.9844,-2.9848,-2.9916,-2.9928,-2.9938,0,0,0,0,0,-2.9711,-2.9763,-2.9744,-2.9749,-2.9766,-2.979,-2.9792,-2.9768,-2.9737,-2.976,-2.9749,-2.9718,-2.9771,-2.9741,-2.9747,-2.9784,-2.9836,-2.9842,-2.9848,-2.9912,-2.9926,-2.9937,0,0,0,0,0,0,-2.9777,-2.9761,-2.974,-2.979,-2.9792,-2.978,-2.9809,-2.9783,-2.9794,-2.9788,-2.9756,-2.9755,-2.9799,-2.9795,-2.9762,-2.9843,-2.9798,-2.9805,-2.9845,-2.9858,-2.9868,-2.9869,-2.9707,0,0,0,0,0,-2.9797,-2.9819,-2.9803,-2.9849,-2.9851,-2.983,-2.984,-2.9821,-2.9821,-2.9822,-2.9814,-2.9816,-2.9833,-2.9845,-2.9859,-2.9915,-2.9913,-2.9942,-2.9953,-2.9962,-2.9969,-2.9999,-3.0012,-2.987,-2.987,-2.987,0,0,-2.9839,-2.9833,-2.9849,-2.9862,-2.9862,-2.9885,-2.9831,-2.9858,-2.9875,-2.9826,-2.9863,-2.9856,-2.9856,-2.9904,-2.9924,-2.9902,-3.0008,-2.9969,-2.9977,-2.9979,-3.0006,-3.002,-3.0032,-2.9874,-2.9873,-2.9873,0,0,-2.9928,-2.9926,-2.9964,-2.9964,-2.9964,-2.9949,-2.9958,-2.995,-2.9945,-2.998,-2.9944,-2.9964,-2.9993,-2.9995,-3.0,-3.0089,-3.0061,-3.0095,-3.0151,-3.0181,-3.0192,-3.0202,-3.0235,-3.0247,-3.0101,-3.0101,-3.0102,0,-2.9981,-3.0015,-2.9987,-3.0016,-3.0023,-2.998,-3.0018,-3.002,-3.0024,-3.003,-3.0004,-3.0041,-3.0037,-3.0085,-3.0107,-3.0112,-3.0122,-3.0096,-3.0193,-3.0202,-3.0211,-3.0242,-3.0255,-3.0106,-3.0105,-3.0105,-3.0104,0,-3.0081,-3.0105,-3.0135,-3.0141,-3.0151,-3.0185,-3.0162,-3.0176,-3.0155,-3.0143,-3.018,-3.0175,-3.0188,-3.0197,-3.0177,-3.0243,-3.0229,-3.0198,-3.0153,-3.0229,-3.0258,-3.027,-3.0112,-3.011,-3.0109,-3.0108,0,0,-3.0213,-3.0202,-3.0214,-3.0216,-3.0212,-3.023,-3.0262,-3.0275,-3.0288,-3.0291,-3.0318,-3.0344,-3.0316,-3.0321,-3.03,-3.0326,-3.0399,-3.0292,-3.0292,-3.0314,-3.0472,-3.0496,-3.0511,-3.0379,-3.0381,-3.0383,-3.0472,0,-3.0301,-3.0355,-3.033,-3.0387,-3.0409,-3.0367,-3.0395,-3.0395,-3.0385,-3.0402,-3.039,-3.0409,-3.037,-3.0373,-3.0396,-3.0385,-3.043,-3.0378,-3.0405,-3.0406,-3.0408,-3.0525,-3.0551,-3.0636,-3.0483,-3.0485,-3.0486,0,-3.0411,-3.042,-3.048,-3.0472,-3.048,-3.0505,-3.0515,-3.0532,-3.0531,-3.0522,-3.0528,-3.0501,-3.0532,-3.0485,-3.0527,-3.0492,-3.0501,-3.0497,-3.05,-3.0503,-3.0452,-3.0534,-3.0662,-3.0675,-3.0504,-3.0502,-3.0501,0,-3.0504,-3.053,-3.057,-3.0573,-3.0564,-3.0583,-3.058,-3.0577,-3.0587,-3.0595,-3.0601,-3.0612,-3.0619,-3.0629,-3.0606,-3.0574,-3.0652,-3.0603,-3.0646,-3.0646,-3.0665,-3.0665,-3.0799,-3.0668,-3.0668,-3.0668,-3.0667,0,-3.0606,-3.0644,-3.0611,-3.0636,-3.0678,-3.0648,-3.069,-3.0682,-3.068,-3.0702,-3.0665,-3.0687,-3.0655,-3.0673,-3.0656,-3.0694,-3.0697,-3.069,-3.0686,-3.0695,-3.0696,-3.0702,-3.0696,-3.0671,-3.067,-3.067,-3.0669,0,-3.0717,-3.0697,-3.0737,-3.0725,-3.0723,-3.0755,-3.0744,-3.0767,-3.0753,-3.0781,-3.0786,-3.0765,-3.0785,-3.0763,-3.0781,-3.0769,-3.0821,-3.0806,-3.0821,-3.0818,-3.0862,-3.0859,-3.1007,-3.1025,-3.0881,-3.0882,-3.0883,0,-3.0785,-3.0813,-3.0805,-3.0817,-3.0817,-3.0837,-3.0846,-3.0817,-3.0829,-3.083,-3.0852,-3.0869,-3.0881,-3.0914,-3.0901,-3.0914,-3.0901,-3.0951,-3.0903,-3.0911,-3.0904,-3.0903,-3.0906,-3.0962,-3.0964,-3.0965,-3.0966,0,-3.0907,-3.0896,-3.0911,-3.0922,-3.0935,-3.0942,-3.0947,-3.0959,-3.0929,-3.0944,-3.0964,-3.0973,-3.0991,-3.1008,-3.1018,-3.1015,-3.0987,-3.0981,-3.0992,-3.1003,-3.1012,-3.1009,-3.0851,-3.0979,-3.0977,-3.0977,-3.0976,-3.0975,-3.1,-3.1024,-3.1022,-3.104,-3.104,-3.1046,-3.1066,-3.1055,-3.1071,-3.1084,-3.1065,-3.109,-3.1089,-3.1099,-3.1099,-3.1118,-3.1096,-3.1112,-3.1116,-3.1121,-3.1128,-3.1007,-3.1119,-3.1119,-3.1118,-3.1118,-3.1118,0,-3.1122,-3.1118,-3.1135,-3.1143,-3.1158,-3.1128,-3.1132,-3.1146,-3.1169,-3.1169,-3.1182,-3.1205,-3.1221,-3.1209,-3.1222,-3.124,-3.1228,-3.1245,-3.1245,-3.1245,-3.1146,-3.1136,-3.1255,-3.1255,-3.1255,-3.1255,-3.1255,-3.1255,-3.1188,-3.1227,-3.1215,-3.1254,-3.1249,-3.1274,-3.1279,-3.1283,-3.1284,-3.1311,-3.1325,-3.1316,-3.1312,-3.1325,-3.1339,-3.1334,-3.1342,-3.1365,-3.1356,-3.1265,-3.1251,-3.1239,-3.1229,-3.1366,-3.1366,-3.1453,-3.1454,-3.1455]}]]